ECMWFFLT1_250_spd_057.txt.gz
Wind_Speed
39 35 34 33 31 28 26 24 23 21 22 25 26 26 27 29 29 29 28 29 30 31 31 30 29 27 25 24 23 22 21 20 20 19 18 17 15 14 12 11 9 8 7 7 7 7 7 8 8 8 8 8 9 9 9 10 10 11 12 14 16 17 16
40 38 37 36 33 30 28 25 23 22 21 23 27 28 28 30 30 28 27 28 30 33 33 32 31 29 26 26 25 25 24 23 22 21 19 17 16 15 14 12 11 10 10 10 10 10 10 10 11 11 11 11 11 11 11 11 12 13 13 14 16 17 18
41 40 40 38 35 31 28 26 24 23 21 22 26 29 30 30 30 28 27 27 30 33 35 35 34 32 31 30 29 28 26 25 23 21 19 18 17 16 15 14 13 13 13 13 13 12 12 12 13 14 14 14 14 14 13 13 13 14 15 16 17 18 19
41 41 41 39 36 31 28 27 25 24 23 22 24 29 30 29 29 29 28 28 31 34 36 37 37 35 34 33 32 30 28 25 23 22 21 20 19 18 17 16 16 16 16 16 15 15 15 15 15 15 16 16 16 16 16 15 15 15 16 18 18 19 20
42 41 41 41 38 33 31 30 28 26 24 22 22 25 29 30 30 30 30 30 32 34 37 39 39 38 37 36 34 32 29 26 25 24 23 22 21 21 20 19 19 18 18 18 18 18 18 17 17 17 18 19 19 18 18 17 17 16 17 19 20 20 21
43 42 42 44 41 37 35 34 30 28 25 23 22 23 26 31 32 33 32 31 32 35 38 40 42 41 40 39 36 33 30 29 27 26 25 24 23 23 21 21 20 20 20 20 20 21 20 19 19 20 20 21 21 21 20 19 19 19 19 19 20 21 22
47 46 45 45 45 41 39 37 33 29 26 24 23 23 25 31 34 34 33 32 34 37 39 41 42 43 42 40 37 34 32 31 30 28 27 26 25 24 23 22 21 21 22 23 23 23 22 22 22 22 22 22 23 23 22 22 22 21 21 21 22 23 24
50 51 49 48 48 46 42 39 35 30 27 26 26 26 26 29 33 35 34 34 36 38 40 41 42 43 42 40 37 35 34 33 32 30 29 28 27 25 24 23 22 22 23 24 25 25 25 24 24 24 24 24 24 24 24 23 23 24 24 24 24 25 25
52 52 51 50 50 48 44 41 37 32 30 29 28 28 27 28 32 33 32 34 37 40 41 41 42 42 42 40 38 36 35 35 33 32 30 29 28 26 25 24 24 24 25 25 25 26 26 26 26 25 25 25 25 25 25 25 25 25 26 26 26 27 28
53 53 53 51 51 50 46 41 38 36 33 31 30 28 27 28 31 32 32 34 37 40 41 42 42 42 41 40 38 37 37 36 34 32 31 30 28 27 26 25 25 26 27 27 27 27 27 27 27 27 26 26 26 26 26 26 26 26 27 27 28 29 30
54 54 53 52 51 51 47 42 40 39 36 33 31 27 25 27 29 32 33 35 37 40 42 43 43 42 41 39 38 38 38 37 35 33 31 30 28 27 26 26 26 27 27 27 27 28 28 28 28 28 28 27 27 27 27 27 27 27 28 28 29 30 31
54 54 52 52 52 51 49 45 42 40 38 35 32 29 26 27 30 33 35 37 38 40 42 44 44 43 41 39 37 38 38 37 35 32 31 29 28 27 26 26 26 26 26 26 27 27 27 28 28 28 28 28 28 28 27 27 27 27 28 29 30 31 32
53 54 54 53 53 52 51 49 45 42 40 37 34 32 30 30 33 35 37 38 39 40 42 44 44 44 42 39 38 37 37 36 33 31 30 28 27 27 27 27 27 26 26 26 27 27 27 28 28 28 28 28 28 28 28 28 28 29 30 31 31 33 34
52 55 55 54 54 54 54 52 49 45 42 39 38 36 34 34 35 37 39 40 40 41 42 43 45 45 43 41 38 38 37 35 32 30 29 27 27 28 28 28 27 26 26 27 27 28 28 28 28 28 28 27 28 28 29 29 29 30 31 32 34 35 35
52 55 56 55 56 56 56 55 52 48 45 42 41 40 38 37 37 37 39 40 41 42 43 44 45 46 45 43 41 39 37 35 33 32 30 29 29 29 29 28 27 27 27 28 28 29 29 29 28 28 28 29 29 29 30 30 30 31 32 34 35 36 36
51 54 55 55 56 58 57 56 54 50 46 44 43 42 41 40 38 37 38 40 41 43 44 45 46 47 47 45 43 41 39 37 36 34 32 31 31 31 30 29 29 29 29 29 30 30 31 30 30 29 30 30 30 30 31 31 32 32 33 34 35 37 38
50 52 53 54 55 57 57 56 54 51 47 45 45 43 43 42 39 38 38 39 41 43 44 46 47 48 48 48 46 43 41 39 37 36 34 33 33 32 32 32 31 31 32 32 31 31 32 32 32 31 31 32 32 32 32 32 33 33 34 35 37 39 41
48 50 52 53 55 57 57 56 54 52 49 47 46 45 44 43 41 40 40 40 41 43 44 46 47 48 48 48 47 45 43 40 39 37 36 35 34 34 34 34 34 34 34 33 33 33 33 33 33 33 34 34 34 34 34 34 34 35 36 38 39 41 43
45 48 50 51 53 56 57 56 55 53 51 49 48 47 46 45 43 42 41 41 41 42 44 45 46 47 47 47 46 44 43 41 40 39 38 36 36 36 36 37 37 36 35 34 34 34 34 34 34 35 35 35 35 35 36 36 37 38 38 39 41 43 45
42 44 46 47 49 53 57 57 56 54 53 52 51 49 48 47 46 44 43 42 42 42 42 44 45 45 46 45 45 44 43 42 41 40 39 38 37 37 38 39 38 36 35 35 35 36 35 35 35 35 35 36 36 37 38 39 39 40 41 42 43 45 48
39 40 41 43 45 50 55 58 56 55 55 55 54 52 51 50 48 46 44 43 42 41 41 42 43 44 44 44 44 44 43 43 42 41 40 39 39 39 40 39 38 37 37 37 37 37 36 36 36 35 36 37 39 40 40 40 41 43 44 45 46 48 50
36 35 35 37 41 46 52 56 58 58 57 57 56 54 52 51 50 48 46 45 43 42 42 41 41 42 43 43 44 44 44 43 43 42 41 41 41 41 41 40 40 39 40 39 39 38 37 36 37 37 38 39 41 42 42 43 45 46 48 49 49 50 50
34 31 31 33 37 42 47 52 57 60 60 58 57 56 53 52 51 49 47 46 44 44 43 43 42 42 42 42 43 44 44 44 44 43 43 43 43 43 42 42 42 41 41 40 39 38 38 38 38 39 40 41 43 44 46 47 48 50 50 51 50 48 46
32 29 30 32 35 39 43 48 54 59 61 60 58 57 54 53 52 50 49 47 46 45 45 44 44 44 43 43 43 43 44 44 45 45 44 44 44 44 44 43 43 42 41 40 40 40 40 40 40 41 43 44 46 47 48 49 50 50 50 48 45 42 39
33 31 31 33 35 38 41 44 48 53 58 60 60 58 57 55 54 52 51 49 48 47 46 46 46 45 44 44 44 44 45 45 46 46 45 45 45 45 44 44 43 42 42 42 42 41 41 42 43 44 46 47 49 49 50 49 49 46 44 42 39 36 35
36 34 34 34 35 36 38 40 43 47 52 57 59 60 59 58 56 54 53 51 49 49 49 49 48 46 45 45 44 45 45 46 46 46 46 45 45 44 44 44 43 43 43 43 42 43 44 45 46 47 48 49 49 49 48 46 43 40 37 35 34 33 32
40 39 37 35 36 36 36 37 39 43 46 51 56 59 60 60 58 56 55 53 51 51 51 51 49 48 47 47 47 47 47 47 47 47 46 46 45 45 45 44 44 44 44 44 45 45 47 48 48 49 49 48 46 44 42 39 37 35 33 32 32 31 31
45 42 38 36 37 37 35 34 36 38 41 45 50 55 58 59 59 58 56 55 54 53 52 52 51 51 50 49 49 49 49 48 48 48 47 47 46 46 46 45 45 45 46 46 47 48 48 48 48 46 45 42 40 38 36 34 34 33 33 32 33 33 33
46 43 40 38 39 38 34 33 35 35 37 40 43 48 52 56 57 58 57 56 56 55 54 53 52 52 51 51 51 51 50 50 49 49 48 47 47 47 47 47 47 47 48 48 48 48 47 45 43 41 39 37 35 34 33 33 33 33 33 34 35 36 37
47 44 42 41 41 39 37 35 35 34 35 37 38 41 45 49 52 55 56 57 57 56 55 54 53 51 51 51 51 51 50 50 50 49 48 48 48 48 49 49 49 48 48 47 45 44 42 40 38 37 35 34 33 32 32 33 33 34 36 38 39 39 39
49 46 44 44 44 42 39 38 37 35 35 36 36 37 39 41 44 48 51 54 55 56 56 55 54 53 53 52 52 51 51 51 50 50 50 49 49 49 48 48 47 45 43 42 41 40 38 36 35 34 33 33 32 33 34 34 35 36 39 41 41 40 40
52 48 46 46 46 44 41 40 40 38 37 37 36 36 36 36 38 41 44 47 49 51 52 52 52 53 53 53 52 52 51 50 49 48 47 46 45 44 43 42 40 39 38 38 37 36 35 34 33 33 33 34 35 36 36 36 36 38 40 41 41 41 42
55 51 47 47 48 46 43 43 44 43 41 39 38 37 36 36 36 37 38 39 40 42 44 45 46 47 48 48 48 47 46 44 42 41 40 38 38 37 37 37 37 36 36 36 36 35 34 34 34 35 36 37 38 39 38 38 38 40 42 43 43 43 45
58 54 50 49 49 48 46 44 45 47 46 43 41 40 38 38 37 36 35 35 36 36 37 38 39 40 40 41 41 40 39 38 37 36 35 35 36 36 37 37 36 36 36 36 35 35 35 36 37 38 39 40 41 42 41 41 42 43 45 45 45 46 48
59 57 54 51 50 49 48 47 47 48 49 47 45 43 42 41 40 38 36 36 36 36 36 36 36 36 36 37 37 37 36 35 35 34 35 36 37 37 37 37 36 37 37 37 38 38 39 40 41 42 43 43 44 45 45 45 46 47 47 47 49 50 51
61 59 57 55 52 51 50 50 50 50 51 50 49 47 45 44 43 41 39 38 38 37 37 37 37 37 37 37 37 36 36 35 35 35 36 37 38 38 38 39 39 39 40 41 41 42 43 44 44 45 46 46 47 48 49 49 50 50 50 51 52 53 53
62 61 60 58 55 53 52 52 53 53 53 52 51 50 48 48 47 46 44 42 41 40 40 40 40 39 39 39 38 38 37 37 37 37 38 39 40 40 40 41 41 42 43 44 45 46 46 46 47 48 49 50 50 51 51 52 53 53 53 54 54 55 55
63 62 61 60 58 56 54 54 55 56 55 54 53 52 51 51 50 49 48 46 45 44 43 43 43 42 42 42 41 41 40 40 40 40 41 42 42 42 42 43 44 45 46 47 48 48 48 49 50 50 51 52 52 53 54 54 55 55 56 56 57 57 58

ECMWFFLT1_250_spd_060.txt.gz
Wind_Speed
32 31 31 32 32 31 30 29 27 23 22 23 23 24 24 25 27 28 28 29 30 31 30 30 29 27 26 26 24 23 22 21 21 21 20 20 19 18 17 16 15 13 13 12 12 12 11 11 11 11 10 9 7 7 7 8 10 11 11 12 13 14 15
35 33 32 33 34 33 31 31 29 26 24 24 25 26 27 27 28 28 27 28 31 32 31 31 30 28 27 26 25 24 23 23 23 22 22 21 20 19 18 16 15 15 14 14 13 12 12 12 12 12 11 11 10 9 10 10 11 12 13 13 14 15 16
39 36 33 33 35 34 33 33 31 28 26 26 27 28 29 29 28 28 27 28 30 32 33 33 32 31 29 28 28 27 25 24 24 24 23 22 21 20 19 17 17 16 16 15 14 14 14 14 14 13 13 13 13 12 12 12 12 13 15 15 15 16 17
43 39 35 34 35 35 35 35 34 31 29 28 28 28 29 29 29 29 29 29 31 34 35 35 34 33 32 32 31 30 28 27 26 25 24 23 23 22 20 19 19 18 17 16 15 15 16 16 16 15 15 15 15 15 14 14 14 14 15 16 17 17 18
46 42 37 35 36 38 38 38 36 34 31 30 29 27 28 29 30 31 31 31 32 34 36 36 36 36 35 34 33 32 30 29 28 27 26 25 25 24 22 21 20 19 18 17 17 17 18 18 18 17 17 17 17 17 17 17 16 16 16 17 17 18 19
47 45 40 38 39 41 41 40 39 38 34 31 30 28 27 29 31 32 33 33 33 35 37 38 38 38 37 36 35 34 32 30 30 29 28 28 27 25 24 23 21 20 19 19 19 19 19 20 20 19 19 19 19 19 20 20 19 18 18 18 18 18 19
47 48 45 43 42 43 44 43 43 41 36 33 32 31 30 30 31 33 35 35 36 36 38 39 39 39 38 37 36 35 34 32 31 30 30 30 29 27 26 24 23 22 21 21 22 22 22 22 22 21 21 21 21 21 22 22 22 21 20 20 19 19 19
47 49 48 45 45 45 45 45 45 43 39 36 35 35 33 31 31 34 36 37 38 38 38 39 39 39 39 38 37 36 35 33 32 32 33 32 31 29 28 26 25 24 23 23 24 24 24 24 24 23 23 23 23 23 23 23 23 23 23 22 21 21 21
47 51 50 46 46 47 45 46 46 45 42 41 39 37 35 33 32 34 36 38 39 39 39 38 38 39 40 40 39 38 37 35 35 35 35 34 32 31 30 29 28 27 26 26 27 27 26 25 25 24 24 24 25 25 24 24 24 24 24 24 24 23 23
48 52 52 47 46 48 46 45 46 45 45 44 42 38 37 36 34 33 35 39 41 41 40 38 38 39 41 41 40 39 39 38 37 38 37 36 34 32 32 31 30 29 28 29 29 28 28 27 26 26 26 26 26 26 26 25 25 25 25 25 25 25 25
47 51 52 48 46 47 47 45 46 48 49 48 44 40 37 36 35 34 34 37 40 41 41 40 39 40 41 42 42 41 41 40 40 40 39 37 35 34 34 33 32 32 31 31 30 30 29 28 27 27 27 27 26 26 26 26 26 26 26 26 26 26 26
46 49 52 49 45 46 47 46 47 50 51 49 45 41 38 37 37 36 35 36 39 42 43 42 42 41 42 42 43 43 42 42 42 41 40 39 38 37 37 36 35 34 33 32 31 30 29 28 28 27 27 27 27 26 26 26 26 26 26 27 27 27 27
46 47 51 51 47 45 46 47 49 51 51 48 45 42 39 38 37 37 37 37 39 42 44 44 44 43 43 43 43 43 43 42 41 42 42 40 40 39 39 38 37 36 35 34 32 31 29 28 27 27 27 26 26 26 25 25 25 26 26 26 27 28 29
46 46 49 51 47 43 45 49 51 52 50 48 45 42 40 39 38 37 37 37 38 41 43 45 46 45 44 44 44 44 43 41 40 40 41 42 42 42 41 40 38 37 36 35 33 30 28 27 27 26 26 26 26 25 25 24 25 25 25 26 27 28 29
45 46 48 49 47 43 45 50 53 53 51 49 46 43 42 40 39 38 38 37 38 40 42 44 46 47 46 45 45 44 43 42 41 40 40 42 43 42 41 40 38 37 36 34 32 29 27 26 26 26 26 26 25 25 24 24 24 25 25 26 27 29 30
44 45 47 48 47 44 44 49 54 54 52 50 48 45 44 43 42 40 39 38 37 38 40 43 45 46 47 46 45 44 44 44 43 42 41 41 42 41 40 39 38 37 35 33 30 28 27 26 26 25 26 26 26 26 26 26 26 26 26 28 29 30 31
42 43 46 47 46 44 43 46 51 53 53 51 50 48 46 44 43 42 41 40 39 38 38 40 42 44 45 46 45 45 45 45 45 44 42 41 40 40 39 38 37 36 34 32 30 28 27 27 26 26 26 27 27 28 28 28 27 28 28 29 30 31 32
41 41 44 46 45 43 43 45 48 51 54 53 52 50 48 46 45 44 43 43 41 38 37 38 39 41 43 44 45 45 45 45 45 45 43 41 40 39 38 38 37 36 34 32 30 29 29 28 26 26 27 28 29 29 29 29 29 29 30 31 32 33 34
41 39 40 43 43 43 43 45 46 50 53 54 54 52 50 48 47 47 45 43 41 39 37 36 37 38 40 42 44 45 45 44 45 45 44 42 41 39 38 38 38 37 34 32 30 30 30 29 28 28 29 30 31 31 30 30 30 30 31 32 33 35 36
41 37 38 41 42 43 43 44 45 48 51 54 55 54 52 50 49 48 46 44 42 40 39 37 36 36 38 40 42 43 44 44 44 45 44 43 42 40 40 39 39 37 35 33 32 32 32 31 31 31 31 31 32 32 31 31 30 31 32 33 35 36 38
40 37 36 38 40 42 43 44 45 47 51 55 56 55 54 53 51 49 47 45 43 42 40 38 36 35 35 37 39 41 42 43 44 44 44 44 43 42 41 40 39 38 36 35 34 34 33 33 34 34 33 34 34 34 32 31 32 32 33 34 36 38 40
41 38 37 37 38 40 42 43 44 46 50 54 56 55 55 55 54 51 48 47 45 43 41 40 38 36 35 35 36 38 40 41 43 44 44 44 44 43 42 41 40 39 38 37 36 36 36 36 36 36 36 36 36 35 33 33 33 34 34 35 37 40 43
42 39 38 38 37 38 39 40 43 45 48 52 55 56 56 55 54 52 50 48 46 44 42 41 40 38 35 34 34 35 36 38 40 42 43 44 45 44 43 42 41 40 40 39 39 39 38 37 37 37 38 38 38 36 34 35 35 35 36 37 39 41 44
42 39 39 38 37 37 36 37 39 42 45 48 53 56 57 56 55 53 51 49 47 45 43 42 41 39 37 35 33 33 33 35 37 39 42 44 45 44 44 43 42 42 42 42 41 41 40 39 39 39 40 40 39 37 36 37 37 37 38 39 41 43 44
43 40 39 38 38 37 36 36 37 39 41 45 49 53 57 58 57 55 53 51 49 46 44 43 42 40 39 37 35 33 33 33 35 37 40 42 44 44 44 44 44 43 43 44 44 43 42 41 41 41 41 40 39 39 38 38 38 39 40 41 42 43 41
43 41 39 38 38 38 37 37 37 37 39 42 45 48 53 57 58 57 55 53 51 48 47 46 44 42 40 39 37 36 35 35 35 36 38 40 42 44 45 45 45 45 45 45 44 43 42 42 42 42 41 40 40 40 40 40 40 41 42 43 42 40 37
44 43 41 40 39 39 39 39 37 36 36 38 41 44 48 52 56 57 57 55 54 52 51 49 46 44 43 42 41 39 38 38 37 37 38 39 40 42 43 44 45 44 44 44 44 44 44 43 43 42 42 42 42 42 41 41 42 43 43 42 39 36 33
48 47 45 43 42 41 41 40 39 36 34 35 38 41 45 49 53 56 57 57 57 56 54 52 49 47 45 45 44 43 42 41 40 40 40 40 41 41 43 43 44 44 44 44 44 44 44 44 43 43 43 43 43 42 43 43 43 43 42 38 35 33 31
51 50 47 45 45 43 41 40 39 37 34 34 36 38 41 45 49 53 56 57 58 57 56 54 52 50 49 48 47 46 45 44 43 43 43 42 42 42 43 43 44 44 44 44 44 45 45 45 45 44 44 43 44 44 44 44 43 41 38 35 33 31 29
55 52 49 47 46 44 41 40 39 37 35 35 35 36 38 40 44 48 52 56 57 58 57 56 55 54 52 51 50 49 48 47 46 45 45 45 44 44 44 44 45 45 45 45 46 46 46 46 45 44 44 44 45 45 44 43 40 37 35 34 32 30 30
58 55 51 49 47 45 42 41 41 39 37 36 35 36 36 37 39 42 47 51 55 57 58 58 57 56 55 53 52 51 50 49 48 48 47 47 46 46 46 46 47 47 46 46 47 46 46 45 45 45 45 45 45 45 42 39 36 35 34 33 31 31 32
60 56 52 49 47 46 43 41 41 40 39 38 36 36 35 35 35 37 41 45 49 54 56 58 58 57 56 55 54 53 52 51 50 50 49 48 48 48 48 48 48 47 46 46 46 46 46 46 46 46 46 45 44 41 37 35 35 34 33 33 33 33 34
61 57 53 50 48 47 45 43 42 41 41 40 38 37 36 35 34 35 36 39 43 47 51 53 55 56 55 55 54 53 53 52 51 50 49 49 48 48 48 47 47 46 46 47 47 48 48 48 47 46 45 42 39 36 34 34 35 34 34 34 35 35 36
61 58 55 52 51 50 48 46 44 43 43 42 40 39 38 36 35 34 34 35 38 41 44 48 51 52 53 53 53 53 52 52 51 50 49 49 49 48 48 47 47 47 48 49 49 49 49 48 46 45 42 39 36 34 35 35 35 35 36 37 37 38 39
61 59 56 54 53 52 50 48 46 44 44 43 42 41 40 39 37 35 34 34 34 36 38 41 45 47 50 51 52 52 52 52 51 51 50 50 50 50 50 49 49 50 50 50 50 49 48 46 44 42 39 38 36 36 36 36 36 37 38 39 40 41 42
64 62 60 57 55 54 52 50 47 46 45 45 44 43 42 42 40 38 36 35 34 34 34 36 38 41 43 46 47 49 50 51 51 51 51 51 51 51 51 50 50 50 50 49 48 46 44 42 40 39 38 38 38 37 37 38 38 40 41 42 43 44 44
66 64 62 60 58 56 54 52 50 48 47 46 46 46 45 44 43 41 39 38 36 35 34 34 35 36 37 39 41 43 45 46 47 48 49 49 49 49 48 48 47 47 46 45 43 42 40 39 38 38 39 39 39 40 40 41 41 42 43 44 45 46 46
68 66 64 62 60 59 56 54 52 51 50 49 48 48 48 47 46 44 43 42 40 39 37 36 35 35 35 36 37 38 39 40 41 42 43 44 44 44 44 44 43 43 42 41 39 38 38 38 39 39 40 41 42 42 43 43 44 45 46 47 47 47 48

ECMWFFLT1_250_spd_063.txt.gz
Wind_Speed
24 24 25 25 25 25 25 24 22 22 22 22 20 20 22 23 23 24 26 26 27 28 29 28 27 25 25 24 24 24 23 22 20 18 17 16 16 16 16 15 15 15 14 14 14 13 13 13 13 12 10 9 8 8 8 9 9 10 11 12 13 14 14
27 27 27 28 28 28 27 26 25 25 25 25 23 22 23 25 25 26 26 26 26 28 30 29 28 27 26 25 25 25 25 23 21 20 18 17 17 17 17 16 16 15 15 15 15 14 13 13 13 12 12 10 10 10 10 11 12 13 13 13 14 15 16
30 29 29 29 30 30 30 28 28 27 27 28 27 24 24 26 27 27 27 26 27 29 31 31 30 29 28 27 27 27 26 24 23 21 19 19 19 19 18 18 17 17 17 16 16 15 14 13 12 12 12 11 11 11 12 13 14 14 15 15 15 16 17
32 32 31 31 32 32 31 30 31 31 30 29 29 27 26 27 28 29 29 28 28 30 32 33 32 31 30 30 29 29 28 27 25 23 21 21 22 21 20 20 19 19 18 17 17 17 16 15 14 13 13 13 12 12 13 14 15 16 16 17 17 18 18
36 35 34 34 34 34 34 33 34 34 32 31 31 30 29 29 30 31 31 31 31 31 32 33 32 32 32 32 31 31 30 29 27 25 24 24 24 23 22 22 22 21 19 19 19 19 18 17 16 15 15 15 14 15 15 16 17 17 17 18 18 19 19
39 38 38 37 36 36 37 37 37 36 35 33 33 33 32 32 33 33 33 33 33 32 33 35 35 35 35 34 33 32 32 30 28 27 26 25 25 24 24 24 23 22 20 20 21 21 20 19 18 18 17 17 17 17 17 18 18 19 19 19 20 20 20
43 41 40 39 38 39 40 39 38 38 37 35 36 36 35 35 35 35 35 35 34 33 34 36 38 37 36 35 34 33 33 31 30 28 27 27 26 26 26 26 25 23 22 22 22 22 22 21 21 20 19 19 19 19 19 20 20 21 21 22 22 22 22
46 44 42 40 40 41 41 40 39 39 38 38 39 40 38 37 37 37 37 36 36 36 36 37 38 38 36 35 34 34 33 32 31 29 28 28 28 28 29 28 26 25 24 24 24 24 24 23 22 22 21 22 22 22 22 22 22 23 24 24 24 23 23
48 46 44 42 42 42 41 41 40 39 39 40 42 42 40 38 39 38 37 36 37 38 38 38 39 39 37 36 35 35 34 33 32 31 30 30 30 31 31 29 28 27 26 26 26 26 26 25 24 23 23 24 24 25 25 25 25 25 25 25 25 25 24
49 47 46 44 43 42 41 41 40 38 39 42 44 43 42 41 40 39 38 37 37 38 39 39 39 39 39 39 37 36 36 36 35 34 33 33 32 33 32 31 30 29 29 28 28 27 27 27 26 25 25 26 26 27 27 27 27 27 27 26 25 24 23
50 48 46 44 43 42 42 41 39 39 41 44 45 45 44 43 40 40 39 38 37 38 40 41 41 41 41 40 39 38 38 38 38 37 36 35 34 34 34 33 32 31 31 30 29 29 29 28 28 27 28 28 28 28 29 29 29 28 27 26 24 22 20
49 47 46 44 43 43 42 41 40 41 43 45 45 45 45 44 42 41 40 39 37 37 40 42 43 42 42 42 41 41 41 41 40 40 38 37 36 36 36 35 35 34 33 32 32 31 30 30 30 30 30 30 30 30 30 29 28 28 27 25 22 20 18
49 48 47 45 44 44 43 41 40 42 44 46 46 46 46 45 44 42 41 40 39 38 40 43 44 44 43 43 44 43 42 42 42 40 39 38 38 38 38 38 37 36 35 34 34 33 32 32 32 32 32 31 31 30 29 28 27 26 25 23 21 19 18
50 49 47 45 44 43 42 41 41 43 45 45 45 46 46 46 46 44 43 42 40 40 40 42 44 46 45 45 45 45 44 43 42 40 40 40 40 41 41 40 39 38 37 36 35 34 34 33 34 33 32 32 31 30 28 27 25 24 23 22 22 21 20
49 48 47 46 45 43 42 41 42 43 44 44 45 46 46 48 48 46 45 43 42 42 41 41 43 46 47 47 47 46 44 43 42 41 41 42 43 44 43 42 40 39 38 38 37 36 36 36 35 34 33 32 30 28 26 24 23 23 23 23 23 23 23
48 47 46 46 45 43 42 42 42 43 43 43 44 45 47 49 49 49 48 46 45 44 42 42 42 44 46 48 48 47 46 44 43 43 43 44 45 45 44 43 42 41 41 39 38 38 38 37 36 35 33 31 29 27 24 22 22 23 24 25 25 25 25
48 47 46 45 45 43 42 41 41 42 42 41 43 45 48 49 50 50 49 48 46 44 43 43 42 42 44 45 46 47 47 46 46 45 45 45 46 45 45 44 44 43 42 41 40 39 39 38 36 34 32 30 28 25 23 23 23 24 25 26 27 27 27
49 48 46 45 44 43 41 41 41 41 41 41 42 46 48 50 51 50 49 49 48 46 45 44 43 42 41 41 42 45 47 47 47 47 47 47 47 46 45 44 43 43 42 41 40 39 38 37 35 33 32 30 27 24 24 24 24 25 26 28 28 29 28
51 49 46 44 44 43 41 41 41 41 41 41 43 46 49 51 52 52 51 50 49 47 46 45 44 43 40 39 40 43 45 46 46 47 47 47 47 47 46 45 44 43 41 40 38 37 37 36 34 32 31 29 27 26 26 26 26 26 28 29 30 30 29
52 49 46 44 43 42 41 41 41 41 42 42 44 47 49 51 52 52 52 50 48 47 46 45 44 43 40 38 38 40 41 42 43 44 45 46 47 47 47 46 45 43 41 39 38 37 36 34 33 32 31 30 29 29 28 27 27 28 30 31 32 31 30
53 49 46 44 42 41 42 41 41 41 42 43 44 45 47 50 52 52 51 50 49 48 47 45 44 42 40 37 36 37 37 39 41 42 43 44 45 46 47 47 46 45 43 41 39 38 36 35 33 33 32 32 32 32 30 29 30 30 32 33 33 33 32
53 50 46 44 42 41 42 42 42 42 42 44 44 44 46 49 52 52 52 52 51 49 48 46 44 43 41 39 37 36 36 37 38 39 40 42 43 44 46 46 46 45 44 42 41 39 38 36 35 34 34 33 35 34 33 32 32 33 34 34 35 35 34
53 50 47 44 42 41 42 42 42 42 42 44 45 45 46 48 51 53 53 53 52 51 49 48 46 45 43 41 39 37 36 35 35 36 37 39 41 42 44 44 45 45 44 44 43 41 40 38 37 36 35 36 37 37 35 34 35 35 36 36 36 37 36
53 51 48 45 43 42 42 42 41 41 42 43 45 46 46 47 50 53 54 55 54 53 52 50 48 47 44 43 41 39 37 35 33 34 35 37 38 40 41 43 43 44 45 45 44 43 41 40 39 39 39 38 39 38 37 37 37 38 37 37 37 38 38
53 51 49 47 45 43 42 42 41 41 41 41 43 45 45 46 49 52 55 56 55 54 53 52 50 48 46 43 41 40 38 35 33 32 33 35 37 39 40 41 42 43 45 46 46 45 43 42 41 42 42 41 41 40 40 39 39 39 38 38 38 39 39
54 52 50 48 46 45 43 43 42 41 40 40 40 42 43 44 46 49 52 54 55 54 54 53 51 48 45 43 41 40 38 36 34 34 33 34 36 37 39 40 41 42 44 45 46 46 45 44 44 44 44 44 43 42 42 41 40 40 39 38 39 40 40
55 53 51 50 48 47 46 45 44 42 41 40 39 39 40 41 43 45 48 51 53 55 55 54 52 49 46 44 43 41 40 38 37 36 36 35 35 36 37 38 40 41 42 44 46 47 47 47 46 47 46 46 45 44 43 42 40 40 40 39 40 40 41
55 53 52 51 49 48 48 46 45 44 43 41 39 38 37 39 40 42 45 47 51 53 55 55 53 51 49 47 45 44 42 41 40 39 38 37 36 36 36 36 37 39 41 43 44 46 47 48 48 48 47 46 46 45 43 42 40 40 40 40 40 41 41
57 54 53 52 51 49 49 48 46 45 44 42 40 38 36 37 38 39 42 44 48 51 53 54 54 53 52 50 48 47 45 44 44 42 41 39 38 37 37 36 36 37 39 41 43 44 46 47 47 47 47 46 45 44 42 41 41 40 41 42 42 42 42
58 56 54 53 52 51 50 49 47 45 44 43 41 38 37 37 37 38 39 42 45 48 51 54 55 55 54 53 51 50 49 48 47 46 45 43 41 40 39 39 38 38 38 39 41 42 44 45 45 45 45 44 43 43 42 41 41 42 43 43 43 43 43
59 58 56 54 53 52 50 49 48 46 45 43 41 39 37 37 37 38 39 40 42 45 48 51 54 56 56 56 54 53 51 51 50 49 48 47 45 44 43 41 40 40 40 39 40 41 42 43 43 43 43 43 42 42 41 42 43 44 45 45 44 44 44
61 60 58 56 54 53 52 51 49 48 46 44 42 40 38 37 36 37 38 39 40 42 44 47 50 54 56 57 56 55 54 53 52 52 51 50 48 47 45 43 42 42 42 42 42 42 43 43 43 43 43 42 42 42 42 44 45 46 46 46 45 45 45
62 61 59 57 55 53 53 52 50 49 48 46 44 41 39 37 36 36 36 37 38 39 41 43 46 50 53 56 57 57 57 56 55 54 52 51 51 50 48 47 46 45 45 45 44 44 44 44 44 44 44 43 43 44 45 46 47 47 47 46 46 45 45
63 62 60 58 56 55 54 53 52 50 50 48 46 44 42 39 38 36 35 35 36 37 38 40 42 45 48 51 54 57 58 58 57 55 54 54 53 52 51 49 49 48 48 47 47 46 46 46 46 46 45 45 46 47 47 48 48 48 48 47 47 47 46
64 64 63 61 59 57 56 55 54 52 51 50 49 47 45 43 41 39 37 35 35 35 36 37 38 40 43 46 49 52 55 57 57 57 57 56 56 54 53 52 51 51 51 50 49 49 48 48 48 48 47 48 48 49 49 50 50 49 49 49 49 49 48
65 65 65 64 61 59 58 57 55 53 52 52 51 50 48 47 45 43 41 38 36 35 35 35 36 37 39 41 44 47 50 53 55 57 57 58 57 56 55 54 54 54 53 52 52 51 50 50 50 50 50 50 50 50 50 50 50 50 51 51 50 49 47
65 65 66 65 64 61 60 58 57 55 54 54 53 52 51 50 48 47 45 42 40 38 36 35 35 35 36 37 39 42 45 48 51 54 56 57 57 56 56 56 56 55 55 55 54 53 53 52 52 52 51 51 51 51 52 52 52 51 50 49 48 47 46
69 67 66 66 65 63 61 60 58 57 55 55 55 54 53 52 51 50 48 46 44 42 40 38 37 36 35 35 36 37 40 43 46 49 52 53 55 55 56 56 56 56 56 56 55 55 55 54 54 54 53 52 52 50 50 51 50 49 49 48 47 47 46

ECMWFFLT1_250_spd_069.txt.gz
Wind_Speed
22 21 21 21 21 20 18 16 16 15 15 15 15 14 14 14 13 13 13 14 14 16 19 22 22 22 22 22 23 23 22 22 21 20 20 19 18 16 15 15 14 13 11 9 9 8 8 8 8 7 7 7 6 5 5 5 7 8 10 12 14 16 17
26 26 26 26 25 24 22 20 20 18 17 17 17 17 16 16 16 15 14 14 14 15 17 20 22 23 22 22 23 23 23 22 22 21 21 21 19 18 17 16 16 15 13 12 11 10 10 9 9 8 8 8 8 7 6 6 7 8 9 12 14 16 17
29 29 29 29 28 26 24 23 22 20 19 19 19 19 18 18 17 17 16 16 16 16 17 19 22 22 23 24 24 24 24 24 23 22 22 21 20 20 19 18 18 17 16 14 13 12 11 10 10 9 9 9 8 8 7 7 7 8 9 11 13 16 17
32 32 31 31 29 27 25 24 23 22 21 22 21 21 20 20 19 19 19 18 18 18 19 20 21 21 23 25 25 25 25 25 25 23 22 21 22 22 22 21 20 19 18 17 15 14 13 12 11 10 9 9 9 9 8 8 8 8 9 11 13 15 17
35 34 33 32 31 29 27 27 26 25 24 23 22 22 22 21 20 20 20 20 20 20 19 20 20 21 23 25 26 26 26 26 25 24 23 23 24 24 23 23 22 21 21 19 17 16 15 14 12 11 11 10 10 10 9 9 9 10 10 12 13 15 17
37 36 35 34 32 31 30 29 28 27 25 24 22 22 22 22 21 21 21 21 22 21 20 21 22 23 24 26 27 27 27 27 26 25 24 25 25 25 24 24 23 23 22 20 19 18 17 15 14 13 12 11 11 11 11 11 11 11 12 12 14 16 17
39 38 36 35 34 33 32 30 29 28 26 24 23 22 23 23 22 22 22 22 22 22 22 23 24 25 26 26 27 28 29 29 28 26 25 25 26 25 25 25 24 24 24 22 20 19 18 17 16 15 14 13 12 12 11 12 12 12 13 13 14 16 17
40 39 38 36 35 34 32 31 31 29 26 25 24 24 24 23 22 23 22 22 22 23 25 25 25 27 28 28 27 28 29 29 28 27 26 26 26 25 25 25 25 25 24 22 21 21 20 19 18 17 16 15 14 13 13 12 13 13 13 14 15 16 17
41 40 39 37 36 35 34 33 32 29 27 26 26 25 24 23 23 24 24 23 23 24 25 26 27 28 29 30 28 27 28 29 29 29 28 27 26 26 25 25 25 25 24 23 22 22 22 21 20 19 18 17 16 15 14 14 13 14 14 14 15 16 16
43 41 40 39 38 37 35 34 33 30 28 28 28 27 26 25 25 25 25 25 26 26 26 27 28 29 30 31 30 28 28 30 31 30 29 28 26 26 26 25 26 26 24 23 23 23 22 22 21 21 20 19 18 17 16 15 15 14 15 15 15 15 15
44 43 41 40 40 39 37 36 34 32 30 30 30 30 28 27 27 26 26 27 27 27 27 27 28 30 31 32 31 30 29 31 33 33 31 29 27 27 26 26 27 26 25 24 23 23 24 24 23 22 22 21 21 19 18 17 16 16 15 15 15 15 14
45 43 42 41 41 40 38 37 35 34 32 32 32 31 29 28 28 27 27 28 29 29 28 29 29 31 33 33 33 32 31 32 34 35 34 31 30 29 28 28 28 27 26 25 24 25 25 25 24 24 24 24 23 21 20 20 18 18 17 16 16 15 13
45 43 42 41 41 41 38 37 36 35 34 34 33 32 31 30 29 29 29 29 30 30 30 30 31 32 33 34 34 34 33 34 36 37 35 33 32 31 31 30 30 28 27 26 26 26 27 26 25 25 26 26 25 23 22 22 21 20 18 17 17 16 14
45 43 42 42 42 42 39 38 37 36 35 34 34 33 32 31 30 30 30 30 30 30 31 31 32 33 34 35 36 36 36 36 37 37 36 34 33 33 33 33 32 30 28 27 28 28 28 27 27 27 28 28 26 25 25 24 23 22 20 20 19 18 16
46 44 44 44 43 42 40 39 39 37 36 35 35 34 34 33 31 31 31 31 31 32 32 32 33 34 36 36 37 38 39 38 37 37 36 35 34 35 35 36 34 32 30 29 29 29 29 29 29 29 29 29 28 27 27 26 25 24 23 22 22 20 18
47 46 46 44 42 42 41 40 40 39 38 36 35 35 35 33 32 32 33 32 32 33 33 34 35 36 37 38 39 39 39 38 38 36 36 35 35 36 37 37 37 35 33 32 32 31 31 30 30 30 30 30 30 29 29 28 27 26 25 25 24 23 21
48 47 46 45 43 43 42 41 41 40 39 37 36 36 36 34 33 33 33 33 33 34 34 34 35 37 38 39 39 39 39 39 38 37 35 35 35 36 37 39 39 38 37 36 35 34 33 33 33 32 32 31 31 31 30 29 28 28 28 27 27 25 23
50 49 48 47 45 44 43 42 41 41 40 38 38 38 37 36 34 34 35 35 35 35 35 36 36 37 38 39 39 39 39 39 39 38 36 35 35 36 37 39 40 40 40 39 38 37 36 36 35 34 33 33 33 33 32 31 31 31 31 30 29 28 26
52 51 49 47 46 45 44 44 43 42 41 40 40 39 38 37 36 36 37 37 37 37 37 36 36 36 36 37 39 40 40 40 40 39 38 36 35 35 37 39 41 42 42 41 40 39 39 39 38 37 36 36 36 35 34 33 33 33 33 32 32 30 28
53 51 50 48 47 46 46 45 44 43 43 42 41 40 39 38 37 37 37 37 36 36 37 36 35 35 35 37 38 39 40 40 40 40 39 38 36 35 37 39 41 42 42 42 42 42 42 42 40 40 39 39 38 38 37 36 35 35 35 34 33 32 31
54 53 51 49 47 47 47 45 44 44 43 43 42 41 39 39 39 38 38 37 37 37 36 36 35 34 35 36 38 39 40 41 41 41 40 39 38 37 38 39 40 40 41 42 43 43 43 43 42 42 41 41 40 40 39 38 37 37 36 35 34 33 33
56 54 53 50 49 48 48 47 46 46 45 44 43 41 41 40 40 39 39 38 38 37 37 36 35 34 35 36 38 39 40 41 42 42 41 41 40 40 39 39 38 38 39 40 42 43 43 44 44 43 42 42 42 42 42 41 39 38 37 36 35 35 35
57 55 53 52 50 49 49 48 47 46 45 45 44 42 42 41 41 40 40 39 38 38 38 37 36 35 35 37 39 40 41 42 43 43 43 42 42 41 41 39 38 37 37 38 39 41 42 43 43 43 43 43 43 44 43 42 40 40 39 37 36 37 36
59 57 55 53 51 50 49 48 47 46 46 46 45 44 43 42 41 41 40 39 39 39 39 37 37 37 37 39 40 40 41 42 43 44 44 44 43 43 42 40 39 37 36 37 37 39 40 41 42 43 44 44 44 44 44 43 41 41 40 39 38 38 38
62 60 57 54 52 51 50 49 48 48 48 47 46 45 43 43 42 42 41 41 40 39 39 38 38 38 38 39 40 40 42 43 44 44 44 45 44 43 42 41 40 38 37 37 37 38 39 40 41 42 43 43 43 44 43 42 41 41 41 40 41 41 40
64 62 59 57 55 53 51 50 50 49 49 48 47 46 44 44 44 43 42 41 40 40 40 40 40 39 38 39 40 41 42 43 44 45 45 45 45 44 43 42 41 40 39 38 38 38 38 39 40 40 41 41 42 42 42 41 40 40 40 41 42 43 43
65 64 62 59 57 55 53 52 51 51 50 49 48 46 45 45 45 44 43 41 41 41 41 40 39 39 39 40 41 43 43 44 45 45 46 46 45 44 44 43 42 41 40 40 39 39 39 39 39 39 40 40 41 41 41 40 39 38 39 41 42 43 44
65 64 62 60 58 56 54 53 52 52 51 50 49 47 46 46 45 44 43 42 43 43 41 40 40 40 41 41 41 42 43 44 45 46 47 46 46 45 45 44 43 43 42 41 41 41 40 39 39 39 39 40 41 41 41 40 39 38 39 40 42 43 44
66 64 63 62 60 58 56 55 54 53 52 51 50 49 48 47 46 44 43 44 44 43 41 40 41 41 40 40 40 41 43 44 45 46 47 48 48 47 46 45 45 44 44 44 44 43 42 41 40 40 40 40 41 41 41 41 40 40 40 41 41 43 44
67 66 64 63 62 60 59 57 56 55 54 53 52 50 49 48 46 45 44 45 44 42 41 41 40 39 39 38 39 40 42 43 44 45 46 47 48 48 48 47 46 46 46 46 47 46 45 44 43 42 42 41 41 41 41 40 41 41 41 41 42 43 43
69 68 66 65 63 62 61 59 58 57 56 55 54 52 50 49 47 46 45 45 44 43 41 39 39 38 39 39 39 40 41 42 43 44 44 45 47 48 48 48 48 48 48 49 49 48 47 46 45 45 44 43 43 42 41 40 40 41 41 41 42 42 43
71 69 68 66 65 64 62 61 59 58 58 57 56 54 51 50 48 46 46 46 45 43 41 39 38 39 39 39 38 39 40 42 43 44 43 44 46 47 49 49 50 50 51 51 51 50 49 48 48 47 46 46 45 44 42 41 40 40 40 40 41 42 42
71 70 68 67 66 65 64 62 61 60 59 58 57 54 52 50 48 47 47 46 45 44 42 40 39 39 39 39 38 38 39 41 42 43 44 45 46 48 49 50 51 53 54 54 53 52 51 51 50 50 49 48 47 45 44 43 41 40 40 39 40 40 41
71 70 68 67 66 65 64 63 61 60 60 59 57 54 52 50 49 48 47 46 46 44 43 41 40 40 40 40 39 39 38 38 39 41 44 46 47 48 49 50 52 55 56 55 54 54 53 53 53 52 52 50 48 47 45 45 44 42 41 40 39 40 40
71 70 68 67 66 65 64 63 62 61 60 59 57 55 53 51 50 49 48 47 46 46 45 43 42 42 41 41 40 40 39 38 38 39 42 44 46 48 49 51 53 55 56 56 55 55 55 54 54 54 53 52 50 48 47 47 46 44 43 42 41 41 41
71 70 68 67 66 65 64 63 62 61 60 58 57 55 54 52 51 50 49 48 47 46 46 45 44 43 42 42 41 40 39 39 38 39 40 41 43 45 48 51 53 54 55 55 55 56 56 56 56 56 55 54 53 51 50 49 48 47 45 45 44 44 43
72 71 69 68 67 66 65 64 63 61 60 59 57 56 55 53 52 51 50 49 48 47 46 46 45 44 44 43 43 42 41 40 40 40 40 40 41 43 45 48 50 51 52 54 55 56 57 57 57 57 56 55 54 53 52 51 50 49 48 48 47 47 46
72 71 70 69 68 67 66 65 65 63 62 60 59 58 57 55 54 53 52 51 50 49 48 47 46 46 46 45 44 44 43 43 42 42 42 41 41 42 43 45 46 47 48 50 53 55 56 57 57 57 56 56 55 54 54 53 52 51 50 50 50 50 49

ECMWFFLT1_250_spd_072.txt.gz
Wind_Speed
24 23 23 22 21 20 19 18 17 16 16 15 14 14 13 12 12 12 12 13 14 16 18 19 20 20 21 21 21 21 20 19 19 18 17 16 15 13 13 12 11 10 9 8 8 8 8 7 7 7 6 6 6 6 7 7 8 9 9 10 12 13 14
27 27 26 25 24 23 21 21 20 19 18 16 16 16 15 14 13 13 12 12 13 15 17 18 19 19 20 21 22 22 22 21 20 20 19 18 17 15 15 14 13 13 11 10 10 10 9 9 8 8 8 8 7 7 7 8 8 9 10 11 12 13 15
31 30 30 29 27 25 23 23 22 21 19 18 17 17 16 15 15 14 13 13 13 14 16 17 18 18 19 21 22 23 23 22 22 22 21 20 18 17 18 17 16 15 14 13 12 12 10 10 10 9 9 9 8 7 7 8 8 9 10 11 12 14 15
34 33 33 32 29 26 25 25 24 23 22 21 19 18 18 17 16 16 15 14 14 15 16 17 17 17 18 20 21 22 23 23 23 23 23 21 20 21 20 19 18 17 16 16 15 13 13 12 11 11 10 10 9 8 7 8 8 9 10 11 12 14 15
37 36 35 33 31 29 27 27 26 25 24 22 21 20 20 19 18 17 16 16 15 15 16 16 16 17 18 20 21 23 24 24 24 24 24 23 23 23 22 21 20 19 18 18 17 15 15 14 13 13 12 11 10 9 9 9 9 9 10 11 12 14 15
40 39 38 35 34 31 30 29 28 27 25 23 22 22 21 19 18 18 17 16 16 15 15 16 18 19 19 20 22 23 24 25 25 25 25 25 25 25 24 23 22 21 21 20 18 17 17 16 15 15 14 13 12 11 10 10 10 10 10 11 12 13 15
43 42 40 38 36 34 33 31 30 29 27 24 23 23 23 22 20 18 17 17 16 16 16 18 19 20 20 21 22 24 26 27 27 26 26 26 26 26 25 24 24 23 22 21 20 19 18 17 17 16 16 15 14 13 12 12 11 11 11 11 12 13 14
46 44 42 40 38 36 35 34 32 31 28 26 25 26 25 23 21 19 19 18 17 16 17 18 19 20 21 21 21 22 24 26 28 28 27 27 27 26 26 26 25 25 24 22 21 20 19 19 18 18 17 17 16 15 14 13 13 13 12 12 12 13 14
48 46 44 42 40 39 37 35 32 31 30 29 28 27 26 25 23 22 20 19 18 17 17 17 18 20 21 22 22 21 22 25 27 28 28 28 27 27 27 27 26 26 25 23 22 21 20 20 19 19 19 19 18 17 16 15 15 14 14 14 13 14 14
50 47 45 43 41 39 37 35 33 31 31 31 30 29 28 27 26 23 22 21 20 19 18 18 18 19 21 23 24 22 22 23 26 28 29 29 28 28 28 27 27 27 26 24 23 22 21 20 20 20 20 20 20 19 18 17 17 16 16 15 15 15 15
50 49 46 44 41 40 38 37 35 34 34 33 32 32 31 30 27 25 24 23 21 20 19 18 19 19 21 22 23 24 24 24 26 28 30 30 29 29 28 28 28 28 27 26 24 23 22 22 21 20 21 21 22 21 20 19 19 18 18 17 17 17 17
52 50 48 45 43 42 40 39 37 35 35 35 35 34 33 31 28 27 26 24 22 21 20 20 20 20 20 22 23 25 26 26 26 29 31 31 30 29 29 29 29 29 28 27 26 24 23 23 22 22 22 23 23 23 22 21 21 20 20 20 19 19 19
53 51 48 45 43 42 41 40 38 37 37 37 37 36 35 32 29 28 27 25 23 22 22 21 21 21 21 22 23 25 27 27 28 30 31 31 30 29 29 30 30 30 29 28 27 26 25 24 23 23 24 25 25 24 24 23 22 22 22 22 21 21 21
54 51 47 45 43 42 42 41 40 40 40 40 39 38 35 32 30 29 28 26 24 24 24 24 23 23 22 22 24 26 27 28 29 30 31 32 31 30 30 31 32 32 31 31 30 28 27 26 25 25 26 26 26 25 24 24 24 24 24 24 24 23 23
55 52 49 47 45 44 43 43 42 42 42 42 41 39 36 34 32 30 29 28 27 26 26 26 25 25 24 24 25 26 27 28 30 30 31 31 31 31 32 32 33 33 33 33 32 31 29 28 28 27 27 27 27 26 25 25 25 25 26 26 26 26 26
56 53 51 48 46 45 45 45 45 45 44 43 42 39 37 36 34 32 31 30 29 28 27 27 26 26 25 26 27 26 26 28 30 31 32 32 33 33 33 34 33 34 35 35 34 33 32 31 30 29 28 28 28 27 26 25 25 27 28 28 28 28 28
57 55 52 50 47 46 45 46 47 47 46 45 43 41 39 39 37 34 33 31 30 29 29 28 28 28 27 28 27 26 26 27 29 31 33 34 34 35 35 35 35 35 35 36 35 35 34 33 32 31 30 30 30 29 28 27 27 28 29 29 29 29 29
60 57 54 52 50 48 48 49 50 49 48 46 45 43 41 40 38 36 34 33 32 31 31 30 29 29 29 28 27 27 27 28 29 31 33 35 35 36 36 36 35 36 36 37 37 36 35 35 35 34 33 32 32 32 31 29 28 29 30 30 30 30 30
62 60 57 55 53 52 53 53 53 51 49 48 46 45 43 41 40 39 37 35 34 33 32 30 30 30 29 29 28 27 27 28 29 31 33 35 36 36 36 36 36 37 37 38 37 37 37 37 37 36 36 35 35 34 32 31 30 31 32 32 31 31 32
64 62 59 58 56 56 56 55 54 53 51 49 47 46 44 42 41 40 37 35 34 33 32 31 31 31 30 30 29 28 28 29 30 31 33 35 36 37 37 37 38 38 38 38 38 38 38 38 37 37 37 37 37 36 35 34 33 34 34 34 34 34 34
65 63 62 61 59 58 58 57 56 55 52 50 48 47 44 42 42 40 38 36 35 34 33 33 33 32 31 31 30 30 30 30 31 32 33 35 36 38 39 40 39 39 39 38 38 38 38 37 37 37 37 38 38 38 38 37 36 36 36 36 36 36 37
66 65 64 62 61 61 61 59 57 54 51 50 49 47 45 43 42 41 39 37 35 35 35 35 34 33 32 32 32 32 32 32 32 33 34 35 37 39 41 41 41 40 39 39 39 38 38 37 37 38 38 39 39 40 40 39 38 38 38 38 38 39 40
67 66 64 63 63 63 62 59 56 53 51 51 50 48 46 44 43 42 39 37 36 37 37 36 35 34 33 34 34 33 33 34 34 35 36 37 38 40 42 43 43 42 41 40 39 39 38 37 37 38 38 39 40 40 40 40 40 40 40 40 41 42 42
67 67 66 66 65 64 61 57 55 53 53 52 51 49 47 45 44 42 40 39 38 38 38 37 36 35 35 35 35 35 35 35 35 36 37 38 40 41 43 44 44 44 43 41 40 39 38 37 37 38 38 39 40 40 40 40 40 40 41 41 42 43 43
69 68 68 66 64 62 60 58 56 55 54 53 51 49 47 45 45 43 42 40 40 39 38 39 38 37 37 37 37 37 36 36 36 37 38 40 41 42 43 44 45 45 44 43 41 40 38 37 37 38 38 39 39 39 39 39 39 39 40 41 42 42 42
71 70 68 65 64 62 61 59 57 56 55 54 52 50 49 47 46 45 43 42 41 40 40 41 41 40 39 38 37 37 37 36 37 38 39 41 42 42 43 44 44 45 45 45 43 42 40 39 39 38 38 38 39 39 39 39 39 39 40 40 41 42 42
72 70 67 65 64 63 61 60 59 58 57 55 53 51 50 49 47 45 44 43 43 43 43 43 42 41 40 39 38 38 38 38 38 38 40 41 41 42 42 43 45 46 47 47 46 44 43 41 40 40 39 39 39 40 40 40 40 41 41 41 42 42 43
72 70 68 66 64 63 62 61 60 58 57 56 54 52 50 49 47 45 45 45 45 45 45 44 42 42 41 40 40 39 39 39 39 39 39 40 41 42 43 43 45 46 47 48 48 47 46 44 43 42 42 41 41 40 40 40 39 40 40 41 42 42 43
72 70 69 67 65 64 62 61 60 59 58 57 55 53 52 50 48 48 48 48 48 47 46 44 44 43 43 42 41 40 39 39 39 39 39 40 41 42 43 43 44 45 47 48 48 49 48 47 46 46 44 44 43 42 41 40 39 38 38 39 41 42 43
73 71 69 68 67 65 64 62 61 60 59 58 57 55 54 52 51 51 51 51 49 48 46 46 46 45 44 43 41 40 39 39 39 39 39 40 40 41 42 43 44 45 46 47 48 49 49 49 49 48 47 46 45 44 43 42 40 39 38 38 39 40 42
75 72 71 70 68 67 65 63 62 61 60 59 58 57 56 55 54 54 54 52 50 48 48 47 47 46 45 43 42 40 39 39 39 39 39 40 40 41 41 42 43 44 45 47 48 49 50 50 50 50 49 48 47 46 45 43 42 41 39 39 38 39 40
76 74 72 71 69 68 66 65 63 63 62 61 60 59 58 58 57 56 55 52 50 50 49 48 48 47 45 44 42 40 40 40 40 40 40 40 40 41 41 42 42 43 44 46 47 49 50 50 50 50 50 49 48 47 46 45 44 43 42 41 40 39 40
77 75 74 72 70 69 68 66 65 64 63 62 61 61 60 60 59 58 56 54 52 51 50 50 49 48 46 44 42 42 42 42 41 40 40 40 40 41 41 42 42 43 43 45 46 48 50 51 51 51 51 50 49 48 48 47 46 45 44 42 41 40 40
78 77 75 73 72 70 69 67 66 64 63 62 62 62 61 61 60 59 57 55 53 53 52 51 50 48 46 44 44 44 44 43 41 40 40 40 40 40 41 42 43 44 45 45 47 48 50 51 52 52 52 52 51 50 50 49 49 47 46 43 41 40 41
80 78 76 74 73 72 70 68 67 65 64 63 62 62 62 61 60 59 57 56 55 54 53 52 51 48 46 46 46 46 45 43 41 41 41 40 40 40 40 41 43 45 46 47 48 49 51 52 53 53 53 53 53 53 52 52 51 49 48 45 44 43 43
81 79 78 76 74 73 71 70 68 67 65 64 63 63 62 62 61 60 58 57 56 55 54 53 51 49 48 48 48 47 45 43 42 41 41 41 40 40 40 40 41 43 45 47 48 49 51 52 52 52 53 53 54 54 54 53 53 52 50 48 47 45 45
83 81 79 77 76 74 73 71 70 69 67 65 65 64 64 64 63 61 59 58 57 57 55 54 52 50 50 50 49 48 47 45 43 42 41 41 41 41 40 40 41 42 43 44 46 47 49 51 51 51 52 53 54 54 54 54 53 53 52 50 49 48 48
84 82 80 78 77 76 74 73 71 70 69 67 66 66 66 65 64 62 61 59 59 58 56 55 53 52 52 51 50 49 48 47 45 44 43 42 42 41 41 41 41 41 42 42 43 44 46 48 49 49 50 52 53 54 55 55 54 54 53 52 51 51 50

ECMWFFLT1_250_spd_075.txt.gz
Wind_Speed
34 32 31 29 27 26 23 21 19 17 16 17 18 18 18 18 19 20 21 22 22 22 22 22 21 20 19 17 17 16 16 16 15 15 14 14 12 11 10 10 9 8 8 7 7 7 7 7 6 6 6 7 7 7 7 8 8 9 10 11 12 13 15
35 34 33 32 31 29 27 24 22 20 18 17 17 17 17 17 18 19 20 21 22 23 23 22 21 20 19 18 19 18 18 18 17 17 16 15 14 13 12 12 11 10 10 9 8 9 8 8 8 7 7 8 8 8 8 8 8 9 10 11 12 13 14
37 36 36 35 35 32 28 26 24 22 20 19 18 17 17 17 17 17 18 19 21 22 23 23 22 21 20 20 20 20 20 20 19 19 18 17 16 15 15 15 14 13 12 11 11 11 10 10 9 9 9 9 9 9 8 8 8 9 10 11 12 13 14
38 37 37 37 35 31 28 27 26 24 23 21 19 18 17 17 17 18 18 19 20 22 22 22 22 21 21 21 21 21 21 21 21 21 20 19 18 18 18 18 17 16 14 14 14 13 12 12 11 11 10 10 10 10 9 9 9 9 10 11 12 13 14
41 39 38 37 33 30 29 29 28 26 23 21 20 19 18 17 17 17 18 19 20 20 20 20 20 22 22 22 22 21 21 22 22 22 21 21 21 21 21 20 19 18 17 17 16 15 14 14 13 13 12 12 12 12 11 10 9 10 11 12 13 13 14
46 44 42 37 34 32 32 33 30 27 24 22 21 19 18 18 17 17 17 18 19 19 19 20 20 21 23 24 25 24 23 23 23 23 23 23 23 23 22 22 21 20 19 19 19 17 16 16 15 14 14 14 13 13 13 12 11 11 12 13 13 13 14
47 46 43 40 38 37 37 36 31 27 25 23 22 21 21 20 19 18 17 17 17 18 19 20 20 20 22 23 24 25 25 25 24 24 24 24 24 24 23 23 23 22 21 21 20 19 18 17 16 16 15 15 15 15 14 14 13 12 13 14 14 14 14
47 45 43 42 40 39 39 37 33 29 26 25 24 24 23 21 20 19 18 17 17 18 19 20 20 20 20 20 21 23 24 24 25 25 25 25 25 25 25 25 24 23 23 23 22 21 20 19 18 17 17 16 16 16 16 15 15 14 14 15 15 15 15
48 47 45 44 42 39 37 36 35 31 28 27 26 25 24 23 22 21 19 18 18 18 19 19 19 19 19 19 20 20 21 23 24 25 26 27 26 26 26 26 25 25 24 24 23 23 22 21 20 19 19 18 18 17 17 17 16 16 16 16 16 16 16
52 50 48 46 45 42 39 36 35 33 31 30 28 27 26 25 24 23 22 21 20 19 19 19 19 19 19 20 19 19 20 22 24 25 26 27 27 27 27 27 27 26 25 25 24 24 23 22 22 21 20 20 19 19 19 18 18 18 17 17 17 17 17
55 51 49 48 45 43 41 37 35 35 34 32 30 28 28 27 26 24 23 23 21 20 19 20 20 20 20 20 19 19 20 22 23 25 26 27 27 28 28 28 28 27 26 26 25 24 24 23 23 22 21 22 22 21 21 20 19 19 19 19 18 19 19
56 51 50 49 46 44 41 38 37 37 36 34 33 30 29 29 28 26 25 24 22 21 21 21 21 21 21 20 20 20 20 21 23 25 27 28 27 27 28 29 29 29 28 27 26 25 24 24 24 23 22 23 23 23 23 22 21 21 21 20 20 20 20
56 54 54 53 50 48 45 41 41 40 38 37 35 32 31 31 30 29 27 26 24 23 23 23 22 22 21 21 21 21 21 21 22 24 26 27 27 26 27 29 29 29 29 28 28 27 26 26 25 24 23 24 25 25 25 23 22 22 22 22 22 22 22
58 57 57 55 52 50 47 45 44 42 40 39 37 35 34 33 33 32 30 28 27 26 26 25 24 23 22 22 23 23 23 22 21 22 23 25 26 26 27 29 30 30 30 30 30 29 28 28 27 25 25 25 27 27 26 25 23 23 23 24 24 24 24
61 61 60 57 54 51 49 48 47 45 43 41 39 38 38 37 36 35 33 31 29 29 28 28 27 26 25 25 25 24 23 22 22 21 22 23 25 27 28 29 30 31 31 31 32 31 30 30 29 28 27 27 28 29 28 26 25 24 24 25 26 26 25
67 65 64 60 56 54 51 49 48 47 45 43 42 41 41 41 39 39 36 33 32 31 30 30 29 28 27 26 26 24 23 22 22 21 22 23 25 26 28 29 30 31 31 33 33 33 32 32 31 30 29 29 30 30 30 28 26 25 26 27 27 27 27
69 67 64 60 56 53 51 50 49 48 47 46 46 45 44 44 43 41 39 35 34 33 33 32 31 30 29 28 27 25 24 23 23 22 23 23 25 26 28 30 31 31 32 33 34 34 34 34 33 33 32 32 32 32 31 30 28 27 27 28 29 29 28
69 68 65 61 59 56 53 51 51 50 50 49 48 47 47 47 45 43 41 38 36 35 35 34 33 32 31 29 28 27 26 24 24 24 24 24 25 27 28 30 31 32 33 34 34 34 34 35 35 35 34 34 34 34 33 32 30 29 29 30 31 31 31
67 66 65 62 60 58 55 53 53 52 52 52 51 50 50 50 48 46 43 41 38 37 36 35 34 33 32 31 30 29 27 26 26 26 26 26 26 26 28 30 32 33 35 35 34 34 35 35 36 36 36 36 36 35 35 34 33 33 32 32 33 33 33
64 61 61 59 58 59 56 54 54 54 54 53 53 53 53 52 50 48 45 42 39 38 38 37 36 34 33 33 32 31 29 28 28 28 27 27 27 27 28 30 32 33 35 35 36 36 36 37 36 36 36 36 37 37 36 36 36 36 35 35 35 36 36
68 63 62 61 60 60 59 58 57 56 55 55 56 56 55 53 51 49 46 44 41 40 39 38 37 36 35 35 34 33 31 31 31 30 29 29 29 28 29 31 32 33 35 36 37 38 38 38 37 37 37 37 38 38 37 37 38 38 37 38 38 39 39
73 68 65 64 62 62 61 60 59 57 57 58 58 58 56 55 52 50 47 45 43 41 40 39 38 37 37 37 36 35 34 33 32 31 31 30 30 30 30 32 33 34 35 36 38 39 39 39 38 38 38 37 37 38 37 38 39 39 39 40 41 42 43
77 72 68 65 63 63 62 61 59 58 59 61 61 59 58 56 53 50 48 47 44 42 41 40 40 39 40 40 38 37 37 36 34 33 33 32 32 31 32 33 34 35 36 37 38 39 40 40 40 39 38 37 37 38 38 38 39 40 40 41 42 43 44
80 77 73 70 68 66 64 62 61 60 62 63 63 61 59 56 53 51 50 48 46 45 43 42 42 42 43 43 40 39 39 37 36 35 34 34 34 33 33 33 34 36 37 37 38 40 41 41 41 41 40 39 38 38 39 39 40 41 41 42 43 44 45
80 78 75 73 72 70 67 64 63 63 65 66 64 62 59 57 54 52 51 49 49 47 46 45 44 45 46 45 42 41 41 39 37 37 36 36 35 34 34 34 35 36 37 38 39 41 42 42 43 43 42 41 40 40 40 40 41 42 43 43 43 44 45
81 79 77 74 72 70 69 67 65 66 68 68 65 62 59 57 55 54 53 52 52 50 49 49 48 47 48 46 44 44 43 41 39 39 38 38 37 36 35 35 35 36 37 38 39 41 42 43 43 44 44 44 42 42 42 42 42 43 44 45 44 45 45
81 80 79 77 74 72 71 69 68 69 70 68 65 62 59 57 57 56 56 55 54 53 53 51 49 49 49 48 47 47 45 43 41 41 39 39 38 37 36 36 36 37 37 38 39 40 41 42 43 44 45 45 44 44 44 44 44 45 45 45 44 44 44
83 81 80 79 77 74 73 71 71 71 71 68 65 63 60 59 59 59 59 58 56 55 55 53 51 51 51 50 49 49 46 43 43 42 40 39 39 38 38 37 37 38 38 38 39 40 41 42 43 44 45 46 47 47 47 47 47 47 47 46 45 44 44
84 82 80 79 77 76 75 74 73 72 71 68 66 63 61 61 62 62 61 60 58 57 56 55 53 53 52 51 50 49 46 45 44 42 41 40 40 39 39 38 38 38 38 38 39 40 41 41 43 45 46 47 48 49 50 50 49 49 49 48 46 46 46
86 84 82 79 78 77 77 75 74 73 71 69 67 65 63 64 64 64 63 62 59 57 57 56 55 54 53 52 51 49 47 46 45 43 42 42 41 40 40 39 39 39 38 38 39 40 41 41 42 44 46 48 49 50 51 51 51 50 50 50 48 47 47
88 86 83 81 80 79 77 76 75 73 71 70 68 66 66 66 65 65 64 62 59 58 59 58 55 54 54 53 51 50 48 47 46 44 44 44 42 41 40 40 39 39 39 39 39 40 41 42 42 44 45 47 49 51 52 53 53 52 52 51 50 49 48
91 88 84 82 81 79 77 76 75 74 72 71 69 68 68 67 67 66 65 62 60 61 60 57 55 56 55 54 53 52 50 48 47 46 45 45 44 43 42 41 40 40 41 41 41 41 42 43 43 44 45 46 48 50 52 53 54 53 53 53 52 51 50
92 88 85 83 82 80 78 76 75 74 73 72 71 70 69 68 68 67 65 63 63 61 59 57 56 57 57 56 54 53 51 49 48 47 46 46 45 44 43 42 42 42 42 43 42 42 43 43 44 44 45 46 47 49 50 52 53 53 53 53 53 53 51
92 89 86 84 82 80 79 77 76 75 74 73 72 71 70 69 68 67 66 65 63 61 59 58 59 59 59 57 55 54 52 50 49 48 48 48 47 45 44 43 43 43 44 44 43 43 43 44 45 46 46 47 47 48 49 50 51 52 52 53 54 53 53
91 89 87 85 83 81 79 78 77 76 75 74 73 72 71 70 69 68 67 66 64 62 62 61 61 60 60 58 56 55 53 51 51 50 50 49 47 46 45 44 44 44 44 44 44 44 44 45 45 47 47 48 49 49 50 50 51 51 51 52 53 53 53
91 89 88 86 84 82 80 79 78 77 76 76 74 73 72 71 70 69 68 67 65 65 64 63 63 62 61 59 58 56 54 53 53 52 51 49 48 47 46 46 45 45 44 44 45 45 45 45 45 46 47 48 48 50 50 50 50 50 50 51 52 52 53
89 88 87 86 85 83 81 80 79 78 77 77 76 74 73 72 71 69 68 68 67 67 66 65 64 63 62 61 58 56 55 55 54 53 52 50 48 47 47 47 46 45 45 46 46 46 46 46 46 46 46 46 47 48 49 48 48 49 50 50 51 52 53
88 88 87 86 85 84 83 81 80 79 79 77 77 76 75 73 72 70 69 69 68 68 67 66 65 64 63 61 59 56 56 56 55 53 52 50 49 48 48 48 47 46 46 47 47 46 46 46 46 46 46 45 45 46 47 47 47 48 48 49 50 51 52